TimeEST,TemperatureF,Dew PointF,Humidity,Sea Level PressureIn,VisibilityMPH,Wind Direction,Wind SpeedMPH,Gust SpeedMPH,PrecipitationIn,Events,Conditions,WindDirDegrees,DateUTC
12:15 AM,73.4,62.6,69,30.11,10.0,East,5.8,-,N/A,,Clear,100,2012-11-14 05:15:00
12:35 AM,71.6,60.8,69,30.11,10.0,West,4.6,-,N/A,,Clear,280,2012-11-14 05:35:00
12:55 AM,69.8,64.4,83,30.11,10.0,WNW,5.8,-,N/A,,Scattered Clouds,300,2012-11-14 05:55:00
1:15 AM,69.8,66.2,88,30.10,10.0,NW,4.6,-,N/A,,Scattered Clouds,310,2012-11-14 06:15:00
1:35 AM,68.0,66.2,94,30.10,10.0,NW,3.5,-,N/A,,Mostly Cloudy,320,2012-11-14 06:35:00
1:55 AM,69.8,66.2,88,30.10,10.0,Calm,Calm,-,N/A,,Scattered Clouds,0,2012-11-14 06:55:00
2:15 AM,69.8,68.0,94,30.09,7.0,Calm,Calm,-,0.03,Rain,Light Rain,0,2012-11-14 07:15:00
2:35 AM,69.8,66.2,88,30.09,10.0,Calm,Calm,-,0.03,,Scattered Clouds,0,2012-11-14 07:35:00
2:55 AM,69.8,66.2,88,30.09,10.0,WNW,5.8,-,0.03,,Scattered Clouds,300,2012-11-14 07:55:00
3:15 AM,68.0,66.2,94,30.09,10.0,WNW,3.5,-,N/A,,Mostly Cloudy,300,2012-11-14 08:15:00
3:35 AM,68.0,66.2,94,30.09,10.0,NW,4.6,-,N/A,,Mostly Cloudy,310,2012-11-14 08:35:00
3:55 AM,68.0,66.2,94,30.09,10.0,Calm,Calm,-,N/A,,Mostly Cloudy,0,2012-11-14 08:55:00
4:15 AM,68.0,66.2,94,30.09,7.0,Calm,Calm,-,N/A,Rain,Rain,0,2012-11-14 09:15:00
4:35 AM,69.8,66.2,88,30.09,10.0,NW,4.6,-,N/A,,Overcast,320,2012-11-14 09:35:00
4:55 AM,69.8,66.2,88,30.09,10.0,NNW,4.6,-,N/A,,Overcast,330,2012-11-14 09:55:00
5:15 AM,68.0,64.4,88,30.09,10.0,Calm,Calm,-,N/A,,Mostly Cloudy,0,2012-11-14 10:15:00
6:47 AM,68.0,66.2,94,30.11,7.0,Variable,3.5,-,N/A,,Mostly Cloudy,0,2012-11-14 11:47:00
7:47 AM,68.0,66.2,94,30.12,7.0,Calm,Calm,-,N/A,,Mostly Cloudy,0,2012-11-14 12:47:00
8:47 AM,77.0,66.2,69,30.15,7.0,NE,5.8,-,N/A,,Mostly Cloudy,50,2012-11-14 13:47:00
9:47 AM,78.8,64.4,61,30.15,7.0,NE,12.7,-,N/A,,Mostly Cloudy,40,2012-11-14 14:47:00
10:47 AM,78.8,64.4,61,30.14,7.0,ENE,9.2,-,N/A,Rain,Rain Showers,60,2012-11-14 15:47:00
12:20 PM,73.4,68.0,83,30.11,3.0,NNE,17.3,21.9,N/A,Rain,Heavy Rain,20,2012-11-14 17:20:00
12:47 PM,71.6,68.0,88,30.12,-9999.0,Calm,Calm,-,N/A,Rain-Thunderstorm,Thunderstorms and Rain,0,2012-11-14 17:47:00
1:47 PM,71.6,68.0,88,30.10,5.0,Calm,Calm,-,N/A,Rain-Thunderstorm,Rain,0,2012-11-14 18:47:00
2:47 PM,69.8,68.0,94,30.11,7.0,Calm,Calm,-,N/A,Rain,Light Rain,0,2012-11-14 19:47:00
4:47 PM,71.6,68.0,88,30.10,7.0,Variable,4.6,-,N/A,Rain,Rain,0,2012-11-14 21:47:00
5:47 PM,71.6,68.0,88,30.10,7.0,Calm,Calm,-,N/A,,Mostly Cloudy,0,2012-11-14 22:47:00
6:47 PM,71.6,68.0,88,30.10,7.0,Calm,Calm,-,N/A,,Overcast,0,2012-11-14 23:47:00
7:15 PM,69.8,68.0,94,30.11,10.0,Calm,Calm,-,N/A,,Mostly Cloudy,0,2012-11-15 00:15:00
7:35 PM,69.8,68.0,94,30.11,5.0,Calm,Calm,-,0.03,Rain,Light Rain,0,2012-11-15 00:35:00
7:55 PM,69.8,68.0,94,30.11,10.0,Calm,Calm,-,0.03,,Mostly Cloudy,0,2012-11-15 00:55:00
8:15 PM,69.8,68.0,94,30.12,10.0,Calm,Calm,-,N/A,,Mostly Cloudy,0,2012-11-15 01:15:00
8:35 PM,68.0,68.0,100,30.12,10.0,Calm,Calm,-,N/A,,Mostly Cloudy,0,2012-11-15 01:35:00
8:55 PM,69.8,68.0,94,30.12,10.0,Calm,Calm,-,N/A,,Mostly Cloudy,0,2012-11-15 01:55:00
9:35 PM,68.0,68.0,100,30.13,10.0,Calm,Calm,-,N/A,,Mostly Cloudy,0,2012-11-15 02:35:00
9:55 PM,68.0,66.2,94,30.13,10.0,Calm,Calm,-,N/A,,Scattered Clouds,0,2012-11-15 02:55:00
10:15 PM,69.8,68.0,94,30.13,10.0,West,3.5,-,N/A,,Scattered Clouds,270,2012-11-15 03:15:00
10:35 PM,68.0,66.2,94,30.12,10.0,Calm,Calm,-,N/A,,Mostly Cloudy,0,2012-11-15 03:35:00
10:55 PM,68.0,64.4,88,30.13,10.0,Calm,Calm,-,N/A,,Scattered Clouds,0,2012-11-15 03:55:00
11:15 PM,68.0,64.4,88,30.12,10.0,West,3.5,-,N/A,,Clear,280,2012-11-15 04:15:00
11:35 PM,66.2,64.4,94,30.12,10.0,WNW,3.5,-,N/A,,Clear,290,2012-11-15 04:35:00
11:55 PM,64.4,64.4,100,30.11,7.0,Calm,Calm,-,N/A,,Clear,0,2012-11-15 04:55:00